Terminal Aerodrome Forecast
Issued by NWS

Home | Current Version | Previous Version | Text Only | Print | Product List | Glossary On
Versions: 1 2 3 4 5 6 7 8 9 10 11 12 13 14 15 16 17 18 19 20 21 22 23 24 25 26 27 28 29 30
000
FTUS44 KLZK 220500
TAFHOT
TAF
KHOT 220525Z 2206/2306 00000KT P6SM SKC
      TEMPO 2208/2212 3SM BR
     FM221200 VRB02KT 3SM BR BKN003
      TEMPO 2212/2215 1/2SM FG VV001
     FM221500 09008KT P6SM SKC
     FM230000 08003KT P6SM SCT250=

USA.gov is the U.S. government's official web portal to all federal, state and local government web resources and services.